Flag for Canada Weather past 2 weeks in Edmonton, Alberta, Canada

Now
37 °F

Overcast.


Feels Like: 27 °F
Forecast: 34 / 40 °F
Wind: 21 mph from West

Location: Edmonton Municipal

Current Time: Apr 1, 2015 at 5:20:04 AM

Latest Report: Apr 1, 2015 at 4:00 AM


Visibility: 9 mi

Pressure: 29.57 "Hg

Humidity: 70%

Dew point: 28 °F

Location of EdmontonLocation

Historic Weather in Edmonton — Graph

°F

Edmonton temperature yesterday

Maximum temperature yesterday: 64 °F (at 4:00 PM)
Minimum temperature yesterday: 37 °F (at 6:00 AM)
Average temperature yesterday: 47 °F

Past Weeks' High & Low Weather Summary

 TemperatureHumidityPressure
High64 °F (Mar 31, 4:00 PM)100% (Mar 22, 10:00 PM)30.41 "Hg (Mar 22, 10:00 PM)
Low10 °F (Mar 23, 1:48 AM)31% (Mar 29, 5:00 PM)29.38 "Hg (Mar 31, 5:00 PM)
Average35 °F71%29.98 "Hg
* Reported Mar 17 4:00 AM — Apr 1 4:00 AM, Edmonton, Weather by CustomWeather, © 2015

Note: Actual official high and low records may vary slightly from our data, if they occured in-between our weather recording intervals... More about our weather records

Advertising

Edmonton weather history for previous 24 hours

 ConditionsComfort  
Time TempWeatherWind HumidityBarometerVisibility
4:00 AM
Wed, Apr 1
37 °FOvercast.21 mph70%29.57 "Hg9 mi
3:00 AM37 °FPassing clouds.22 mph70%29.58 "Hg9 mi
2:00 AM37 °FClear.21 mph70%29.58 "Hg9 mi
1:00 AM37 °FClear.21 mph75%29.58 "Hg9 mi
12:00 AM37 °FClear.18 mph75%29.59 "Hg9 mi
11:00 PM
Tue, Mar 31
39 °FClear.18 mph75%29.60 "Hg9 mi
10:00 PM39 °FPassing clouds.24 mph81%29.60 "Hg9 mi
9:00 PM41 °FOvercast.18 mph81%29.59 "Hg9 mi
8:00 PM41 °FMostly cloudy.21 mph87%29.57 "Hg9 mi
7:58 PM41 °FOvercast.20 mph87%29.51 "Hg9 mi
7:00 PM45 °FOvercast.28 mph87%29.54 "Hg5 mi
6:59 PM45 °FOvercast.24 mph87%29.49 "Hg6 mi
6:00 PM50 °FBroken clouds.21 mph71%29.48 "Hg6 mi
5:00 PM61 °FSunny.9 mph39%29.38 "Hg9 mi
4:00 PM64 °FSunny.10 mph34%29.38 "Hg9 mi
3:00 PM63 °FSunny.No wind32%29.38 "Hg9 mi
2:00 PM61 °FSunny.No wind39%29.41 "Hg9 mi
1:00 PM59 °FSunny.5 mph45%29.43 "Hg9 mi
12:00 PM55 °FSunny.6 mph47%29.46 "Hg9 mi
11:00 AM50 °FSunny.N/A54%29.49 "Hg9 mi
10:56 AM50 °FSunny.N/A54%29.46 "Hg9 mi
10:00 AMN/ASunny.5 mphN/A29.48 "Hg9 mi
9:00 AM41 °FSunny.7 mph66%29.55 "Hg9 mi
8:00 AM37 °FClear.8 mph70%29.59 "Hg9 mi
7:00 AM37 °FClear.7 mph65%29.60 "Hg9 mi
6:00 AM37 °FClear.7 mph65%29.62 "Hg9 mi
5:00 AM41 °FClear.7 mph57%29.64 "Hg9 mi
Weather by CustomWeather, © 2015

See weather overviewHow to use our weather pages